| time (UTC) | temp F | wind direction | speed knots | gust knots | rain 1hr in | rain 24hr in | rain mn in | humidity % | barometer mb |
| 20260510180104 | 86 | 340 | 19.1 | 26.1 | 0.00 | 0.00 | 0.00 | 31 | 1014.5 |
| 20260510174558 | 85 | 351 | 19.1 | 29.5 | 0.00 | 0.00 | 0.00 | 32 | 1014.6 |
| 20260510173048 | 84 | 337 | 20.0 | 28.7 | 0.00 | 0.00 | 0.00 | 31 | 1014.3 |
| 20260510171552 | 84 | 321 | 21.7 | 28.7 | 0.00 | 0.00 | 0.00 | 32 | 1014.2 |
| 20260510170051 | 84 | 338 | 24.3 | 32.2 | 0.00 | 0.00 | 0.00 | 30 | 1014.2 |
| 20260510164550 | 85 | 339 | 21.7 | 29.5 | 0.00 | 0.00 | 0.00 | 29 | 1013.9 |
| 20260510163055 | 86 | 340 | 20.9 | 28.7 | 0.00 | 0.00 | 0.00 | 29 | 1013.5 |
| 20260510161550 | 88 | 335 | 21.7 | 30.4 | 0.00 | 0.00 | 0.00 | 18 | 1013.0 |
| 20260510160100 | 89 | 352 | 19.1 | 25.2 | 0.00 | 0.00 | 0.00 | 14 | 1012.6 |
| 20260510154555 | 82 | 42 | 12.2 | 21.7 | 0.00 | 0.00 | 0.00 | 25 | 1012.5 |
| 20260510153051 | 83 | 55 | 12.2 | 16.5 | 0.00 | 0.00 | 0.00 | 23 | 1012.3 |
| 20260510151549 | 81 | 60 | 7.0 | 13.9 | 0.00 | 0.00 | 0.00 | 28 | 1011.9 |
| 20260510150053 | 92 | 242 | 11.3 | 16.5 | 0.00 | 0.00 | 0.00 | 12 | 1011.0 |
| 20260510144548 | 91 | 254 | 12.2 | 16.5 | 0.00 | 0.00 | 0.00 | 12 | 1010.8 |
| 20260510143052 | 90 | 244 | 11.3 | 18.2 | 0.00 | 0.00 | 0.00 | 12 | 1010.6 |
| 20260510141552 | 88 | 245 | 12.2 | 16.5 | 0.00 | 0.00 | 0.00 | 13 | 1010.4 |
| 20260510140053 | 86 | 258 | 11.3 | 16.5 | 0.00 | 0.00 | 0.00 | 15 | 1010.6 |
| 20260510134548 | 84 | 245 | 8.7 | 12.2 | 0.00 | 0.00 | 0.00 | 20 | 1010.6 |
| 20260510133050 | 81 | 256 | 7.8 | 11.3 | 0.00 | 0.00 | 0.00 | 23 | 1010.6 |
| 20260510131549 | 79 | 267 | 6.1 | 8.7 | 0.00 | 0.00 | 0.00 | 24 | 1010.3 |
| 20260510130049 | 77 | 257 | 6.1 | 9.6 | 0.00 | 0.00 | 0.00 | 25 | 1010.0 |
| 20260510124553 | 76 | 254 | 7.0 | 9.6 | 0.00 | 0.00 | 0.00 | 26 | 1009.8 |
| 20260510123048 | 75 | 238 | 7.8 | 10.4 | 0.00 | 0.00 | 0.00 | 26 | 1009.9 |
| 20260510121546 | 75 | 267 | 3.5 | 7.8 | 0.00 | 0.00 | 0.00 | 26 | 1009.9 |
| 20260510120046 | 75 | 252 | 6.1 | 8.7 | 0.00 | 0.00 | 0.00 | 25 | 1009.7 |
| 20260510114556 | 74 | 253 | 4.3 | 7.8 | 0.00 | 0.00 | 0.00 | 25 | 1009.5 |
| 20260510113049 | 75 | 244 | 5.2 | 8.7 | 0.00 | 0.00 | 0.00 | 24 | 1009.2 |
| 20260510111547 | 75 | 246 | 6.1 | 9.6 | 0.00 | 0.00 | 0.00 | 24 | 1009.1 |
| 20260510110052 | 76 | 232 | 7.8 | 10.4 | 0.00 | 0.00 | 0.00 | 23 | 1009.0 |
| 20260510104553 | 76 | 221 | 7.8 | 11.3 | 0.00 | 0.00 | 0.00 | 22 | 1009.0 |
| 20260510103053 | 75 | 231 | 5.2 | 9.6 | 0.00 | 0.00 | 0.00 | 22 | 1008.9 |
| 20260510101551 | 75 | 227 | 7.0 | 10.4 | 0.00 | 0.00 | 0.00 | 22 | 1008.8 |
| 20260510100110 | 73 | 243 | 6.1 | 9.6 | 0.00 | 0.00 | 0.00 | 23 | 1008.8 |
| 20260510094556 | 72 | 244 | 3.5 | 7.8 | 0.00 | 0.00 | 0.00 | 25 | 1008.8 |
| 20260510093100 | 72 | 245 | 5.2 | 7.8 | 0.00 | 0.00 | 0.00 | 25 | 1008.7 |
| 20260510091549 | 70 | 250 | 1.7 | 4.3 | 0.00 | 0.00 | 0.00 | 27 | 1008.6 |
| 20260510090053 | 72 | 155 | 0.0 | 2.6 | 0.00 | 0.00 | 0.00 | 28 | 1008.7 |
| 20260510084552 | 72 | 175 | 1.7 | 4.3 | 0.00 | 0.00 | 0.00 | 27 | 1008.7 |
| 20260510083101 | 73 | 150 | 0.9 | 4.3 | 0.00 | 0.00 | 0.00 | 27 | 1008.8 |
| 20260510081550 | 73 | 163 | 0.9 | 3.5 | 0.00 | 0.00 | 0.00 | 28 | 1009.0 |
| 20260510080052 | 73 | 148 | 0.9 | 3.5 | 0.00 | 0.00 | 0.00 | 27 | 1009.1 |
| 20260510074551 | 73 | 217 | 0.0 | 3.5 | 0.00 | 0.00 | 0.00 | 29 | 1009.2 |
| 20260510073051 | 71 | 182 | 0.0 | 0.9 | 0.00 | 0.00 | 0.00 | 31 | 1009.4 |
| 20260510071556 | 73 | 163 | 0.0 | 2.6 | 0.00 | 0.00 | 0.00 | 29 | 1009.4 |
| 20260510070053 | 71 | 0 | 0.0 | 0.9 | 0.00 | 0.00 | 0.00 | 32 | 1009.5 |
| 20260510064550 | 72 | 0 | 0.0 | 0.9 | 0.00 | 0.00 | 0.00 | 29 | 1009.6 |
| 20260510063051 | 74 | 147 | 0.0 | 0.9 | 0.00 | 0.00 | 0.00 | 27 | 1009.8 |
| 20260510061553 | 75 | 153 | 0.9 | 3.5 | 0.00 | 0.00 | 0.00 | 25 | 1009.9 |
| 20260510060051 | 75 | 144 | 1.7 | 5.2 | 0.00 | 0.00 | 0.00 | 25 | 1009.9 |
| 20260510054551 | 77 | 172 | 2.6 | 7.8 | 0.00 | 0.00 | 0.00 | 24 | 1009.9 |
| 20260510053052 | 78 | 176 | 4.3 | 7.8 | 0.00 | 0.00 | 0.00 | 24 | 1009.8 |
| 20260510051548 | 77 | 180 | 3.5 | 7.8 | 0.00 | 0.00 | 0.00 | 24 | 1009.8 |
| 20260510050049 | 77 | 155 | 1.7 | 6.1 | 0.00 | 0.00 | 0.00 | 23 | 1009.6 |
| 20260510044550 | 78 | 189 | 3.5 | 7.8 | 0.00 | 0.00 | 0.00 | 22 | 1010.0 |
| 20260510043054 | 78 | 181 | 4.3 | 10.4 | 0.00 | 0.00 | 0.00 | 21 | 1010.0 |
| 20260510041551 | 78 | 169 | 5.2 | 11.3 | 0.00 | 0.00 | 0.00 | 21 | 1009.8 |
| 20260510040058 | 78 | 163 | 3.5 | 7.0 | 0.00 | 0.00 | 0.00 | 21 | 1009.8 |
| 20260510034604 | 75 | 164 | 0.0 | 3.5 | 0.00 | 0.00 | 0.00 | 24 | 1009.7 |
| 20260510033112 | 74 | 149 | 0.0 | 3.5 | 0.00 | 0.00 | 0.00 | 22 | 1009.6 |
| 20260510031552 | 75 | 157 | 0.9 | 3.5 | 0.00 | 0.00 | 0.00 | 23 | 1009.4 |
| 20260510030051 | 77 | 160 | 0.0 | 3.5 | 0.00 | 0.00 | 0.00 | 19 | 1009.2 |
| 20260510024556 | 78 | 190 | 0.9 | 4.3 | 0.00 | 0.00 | 0.00 | 19 | 1008.9 |
| 20260510023046 | 80 | 166 | 0.9 | 2.6 | 0.00 | 0.00 | 0.00 | 17 | 1009.0 |
| 20260510021547 | 82 | 149 | 2.6 | 4.3 | 0.00 | 0.00 | 0.00 | 14 | 1008.8 |
| 20260510020050 | 81 | 135 | 0.0 | 2.6 | 0.00 | 0.00 | 0.00 | 16 | 1008.5 |
| 20260510014552 | 85 | 142 | 0.0 | 1.7 | 0.00 | 0.00 | 0.00 | 14 | 1008.2 |
| 20260510013054 | 88 | 119 | 0.9 | 4.3 | 0.00 | 0.00 | 0.00 | 15 | 1008.0 |
| 20260510011554 | 90 | 126 | 1.7 | 7.0 | 0.00 | 0.00 | 0.00 | 12 | 1007.9 |
| 20260510010050 | 92 | 107 | 5.2 | 10.4 | 0.00 | 0.00 | 0.00 | 12 | 1007.8 |
| 20260510004551 | 93 | 130 | 0.9 | 10.4 | 0.00 | 0.00 | 0.00 | 14 | 1007.8 |
| 20260510003109 | 94 | 145 | 5.2 | 8.7 | 0.00 | 0.00 | 0.00 | 9 | 1007.7 |
| 20260510001551 | 94 | 134 | 4.3 | 7.8 | 0.00 | 0.00 | 0.00 | 9 | 1007.7 |
| 20260510000057 | 95 | 146 | 0.9 | 5.2 | 0.00 | 0.00 | 0.00 | 9 | 1007.9 |
| 20260509234602 | 93 | 0 | 0.0 | 5.2 | 0.00 | 0.00 | 0.00 | 11 | 1007.9 |
| 20260509233048 | 95 | 153 | 1.7 | 8.7 | 0.00 | 0.00 | 0.00 | 9 | 1008.0 |
| 20260509231553 | 93 | 151 | 1.7 | 5.2 | 0.00 | 0.00 | 0.00 | 12 | 1007.8 |
| 20260509230057 | 94 | 0 | 0.0 | 1.7 | 0.00 | 0.00 | 0.00 | 13 | 1008.1 |
| 20260509224546 | 97 | 0 | 0.0 | 2.6 | 0.00 | 0.00 | 0.00 | 9 | 1008.3 |
| 20260509223052 | 96 | 0 | 0.9 | 5.2 | 0.00 | 0.00 | 0.00 | 8 | 1008.4 |
| 20260509221552 | 95 | 0 | 0.0 | 5.2 | 0.00 | 0.00 | 0.00 | 8 | 1008.6 |
| 20260509220050 | 95 | 128 | 0.9 | 7.0 | 0.00 | 0.00 | 0.00 | 11 | 1008.8 |
| 20260509214553 | 96 | 0 | 0.9 | 4.3 | 0.00 | 0.00 | 0.00 | 9 | 1009.0 |
| 20260509213058 | 95 | 0 | 1.7 | 4.3 | 0.00 | 0.00 | 0.00 | 9 | 1009.2 |
| 20260509211601 | 95 | 257 | 3.5 | 7.8 | 0.00 | 0.00 | 0.00 | 10 | 1009.5 |
| 20260509210054 | 95 | 223 | 1.7 | 9.6 | 0.00 | 0.00 | 0.00 | 9 | 1009.7 |
| 20260509204550 | 96 | 160 | 4.3 | 11.3 | 0.00 | 0.00 | 0.00 | 10 | 1010.0 |
| 20260509203047 | 95 | 151 | 1.7 | 7.8 | 0.00 | 0.00 | 0.00 | 11 | 1010.2 |
| 20260509201551 | 93 | 0 | 1.7 | 6.1 | 0.00 | 0.00 | 0.00 | 17 | 1010.6 |
| 20260509194558 | 92 | 0 | 2.6 | 7.8 | 0.00 | 0.00 | 0.00 | 17 | 1011.0 |
| 20260509193055 | 94 | 100 | 0.9 | 7.0 | 0.00 | 0.00 | 0.00 | 14 | 1011.1 |
| 20260509191550 | 93 | 313 | 0.9 | 6.1 | 0.00 | 0.00 | 0.00 | 12 | 1011.3 |
| 20260509190053 | 92 | 223 | 1.7 | 7.0 | 0.00 | 0.00 | 0.00 | 12 | 1011.5 |
| 20260509184551 | 92 | 143 | 4.3 | 7.8 | 0.00 | 0.00 | 0.00 | 11 | 1011.5 |
| 20260509183135 | 92 | 76 | 2.6 | 7.8 | 0.00 | 0.00 | 0.00 | 17 | 1011.8 |
| 20260509181606 | 91 | 178 | 0.9 | 7.0 | 0.00 | 0.00 | 0.00 | 14 | 1012.0 |